This is the latest recevied weather packets stored in our database for station/object KI7CSN-13. If no packets are shown the sender has not sent any weather packets the latest 10 day(s).
| Time | Temp. | Humidity | Pressure | Rain* | Wind** | Luminosity | Snow |
|---|---|---|---|---|---|---|---|
| 1777425479 | 20.56° C | 24% | 984.1 hPa | 0 mm | - | - | - |
| 1777425179 | 21.11° C | 23% | 984.1 hPa | 0 mm | - | - | - |
| 1777424879 | 21.11° C | 22% | 984.1 hPa | 0 mm | - | - | - |
| 1777424579 | 21.67° C | 21% | 983.9 hPa | 0 mm | - | - | - |
| 1777424279 | 22.22° C | 21% | 983.8 hPa | 0 mm | - | - | - |
| 1777423979 | 22.22° C | 20% | 983.7 hPa | 0 mm | - | - | - |
| 1777423679 | 21.67° C | 21% | 983.8 hPa | 0 mm | - | - | - |
| 1777423379 | 21.67° C | 20% | 983.9 hPa | 0 mm | - | - | - |
| 1777423079 | 22.22° C | 20% | 983.7 hPa | 0 mm | - | - | - |
| 1777422779 | 22.22° C | 20% | 983.7 hPa | 0 mm | - | - | - |
| 1777422479 | 21.67° C | 22% | 983.5 hPa | 0 mm | - | - | - |
| 1777422179 | 21.67° C | 21% | 983.4 hPa | 0 mm | - | - | - |
| 1777421879 | 21.67° C | 21% | 983.5 hPa | 0 mm | - | - | - |
| 1777421579 | 22.22° C | 20% | 983.4 hPa | 0 mm | - | - | - |
| 1777421279 | 21.67° C | 20% | 983.5 hPa | 0 mm | - | - | - |
| 1777420979 | 22.22° C | 20% | 983.5 hPa | 0 mm | - | - | - |
| 1777420679 | 22.22° C | 19% | 983.5 hPa | 0 mm | - | - | - |
| 1777420379 | 22.78° C | 20% | 983.5 hPa | 0 mm | - | - | - |
| 1777420079 | 22.78° C | 18% | 983.5 hPa | 0 mm | - | - | - |
| 1777419779 | 22.78° C | 18% | 983.5 hPa | 0 mm | - | - | - |
| 1777419479 | 22.78° C | 18% | 983.7 hPa | 0 mm | - | - | - |
| 1777419179 | 22.22° C | 18% | 983.7 hPa | 0 mm | - | - | - |
| 1777418879 | 22.22° C | 18% | 983.7 hPa | 0 mm | - | - | - |
| 1777418579 | 22.22° C | 20% | 983.8 hPa | 0 mm | - | - | - |
| 1777418279 | 22.78° C | 20% | 983.7 hPa | 0 mm | - | - | - |
* Rain latest hour (hover to see other rain measurements)
** Current wind speed in m/s (hover to see current wind gust speed)